Location: Burbank
(38.7788°N, 114.0429°W)
Time: 21:54:42
(UTC+00:00)

S-56A Canister/Altair - Pass Details

Date: 16 May 2026
Orbit: 632 x 2484 km, 38.9° (Epoch: 8 June)

Event Time Altitude Azimuth Distance (km) Brightness Sun altitude
Rises 07:50:31 0° 281° (W) 2,984 - -31.9°
Reaches altitude 10° 07:52:39 10° 277° (W) 2,150 - -31.9°
Maximum altitude 07:57:25 59° 198° (SSW) 945 - -31.8°
Drops below altitude 10° 08:03:59 10° 120° (ESE) 2,928 - -31.6°
Sets 08:07:18 0° 117° (ESE) 4,177 - -31.5°
